Hourly Data Report for November 10, 2019

All times are specified in Local Standard Time (LST). Add 1 hour to adjust for Daylight Saving Time where and when it is observed.

HOPE A
BRITISH COLUMBIA
Current Station Operator: NAVCAN

49°22'06.000" N
121°29'53.000" W
39.00 m
1113542
71187
YHE

Download Data

Hourly Data (November 2019)
Hourly Data Report for November 10, 2019
TIME Temp Definition
°C
Dew Point Definition
°C
Rel Hum Definition
%
Wind Dir Definition
10's deg

Wind Spd Definition
km/h
Visibility Definition
km
Stn Press Definition
kPa
Hmdx Definition


Wind Chill Definition


Weather Definition


00:00 9.0 8.7 98 24 9 2.0 101.89     Rain,Fog
01:00 9.0 8.7 98 25 9 2.8 101.91     Rain,Fog
02:00 9.0 8.9 99   0 1.6 101.96     Rain,Fog
03:00 9.3 9.0 98 21 8 3.2 101.93     Rain,Fog
04:00 9.2 8.9 98 LegendMM 4 2.4 101.97     Rain,Fog
05:00 9.2 9.1 99   0 2.4 102.02     Rain,Fog
06:00 8.9 8.8 99 12 5 2.4 102.06     Rain,Fog
07:00 8.3 8.2 99   0 1.2 102.09     Fog
08:00 8.6 8.5 99 LegendMM 4 6.4 102.14     Fog
09:00 9.2 9.1 99 13 9 14.5 102.20     LegendNANA
10:00 9.8 9.5 98 10 9 16.1 102.25     LegendNANA
11:00 10.3 9.7 96 7 5 16.1 102.29     LegendNANA
12:00 12.3 7.9 74 12 9 16.1 102.30     LegendNANA
13:00 10.7 7.4 80 14 9 16.1 102.28     LegendNANA
14:00 10.8 7.5 80 LegendMM 4 16.1 102.29     LegendNANA
15:00 10.5 7.2 80 8 9 16.1 102.26     LegendNANA
16:00 9.9 6.9 82 10 9 16.1 102.32     LegendNANA
17:00 8.7 6.3 85 3 5 16.1 102.40     LegendNANA
18:00 8.5 5.0 79 LegendMM 11 16.1 102.52     LegendNANA
19:00 9.2 3.4 67 13 22 16.1 102.57     LegendNANA
20:00 8.4 2.5 66 10 17 16.1 102.61     LegendNANA
21:00 8.0 2.3 67 11 22 16.1 102.64     LegendNANA
22:00 7.6 1.3 64 12 28 16.1 102.67     LegendNANA
23:00 7.2 0.9 64 11 26 16.1 102.67     LegendNANA

Notes on Data Quality.

Legend

  • E = Estimated
  • M = Missing
  • NA = Not Available
Date modified: